Time,TemperatureF,DewpointF,PressureIn,WindDirection,WindDirectionDegrees,WindSpeedMPH,WindSpeedGustMPH,Humidity,HourlyPrecipIn,Conditions,Clouds,dailyrainin,SoftwareType,DateUTC
2013-04-01 06:48:00,46.2,44.6,29.53,North,357,4.5,4.5,94,0.00,,,0.00,WUHU216WMR968SP,2013-04-01 10:48:00,
2013-04-01 06:53:00,46.4,44.6,29.53,NW,307,6.3,8.1,93,0.00,,,0.00,WUHU216WMR968SP,2013-04-01 10:53:00,
2013-04-01 06:58:00,46.4,44.6,29.53,East,100,6.7,8.7,93,0.00,,,0.00,WUHU216WMR968SP,2013-04-01 10:58:00,
2013-04-01 07:06:00,46.4,44.6,29.56,North,0,4.9,8.7,93,0.00,,,0.00,WUHU216WMR968SP,2013-04-01 11:06:00,
2013-04-01 07:11:00,46.4,44.6,29.56,North,0,4.9,9.2,92,0.00,,,0.00,WUHU216WMR968SP,2013-04-01 11:11:00,
2013-04-01 07:16:00,46.6,44.6,29.56,North,357,6.7,9.2,91,0.00,,,0.00,WUHU216WMR968SP,2013-04-01 11:16:00,
2013-04-01 07:21:00,46.6,42.8,29.56,WNW,299,7.6,8.7,90,0.00,,,0.00,WUHU216WMR968SP,2013-04-01 11:21:00,
2013-04-01 07:27:00,46.6,42.8,29.56,North,3,6.3,10.5,87,0.00,,,0.00,WUHU216WMR968SP,2013-04-01 11:27:00,
2013-04-01 07:32:00,46.6,42.8,29.56,NNE,24,4.9,10.5,84,0.00,,,0.00,WUHU216WMR968SP,2013-04-01 11:32:00,
2013-04-01 07:37:00,46.8,41.0,29.56,NNW,331,5.4,9.2,79,0.00,,,0.00,WUHU216WMR968SP,2013-04-01 11:37:00,
2013-04-01 07:42:00,46.8,39.2,29.56,NW,313,6.7,10.5,75,0.00,,,0.00,WUHU216WMR968SP,2013-04-01 11:42:00,
2013-04-01 07:47:00,46.8,35.6,29.56,NNW,342,8.1,10.5,68,0.00,,,0.00,WUHU216WMR968SP,2013-04-01 11:47:00,
2013-04-01 07:52:00,46.8,32.0,29.56,North,353,8.3,11.0,55,0.00,,,0.00,WUHU216WMR968SP,2013-04-01 11:52:00,
2013-04-01 07:57:00,46.8,27.5,29.56,NW,319,8.7,12.8,47,0.00,,,0.00,WUHU216WMR968SP,2013-04-01 11:57:00,
2013-04-01 08:02:00,46.9,24.8,29.56,NNW,332,6.7,12.8,42,0.00,,,0.00,WUHU216WMR968SP,2013-04-01 12:02:00,
2013-04-01 08:07:00,47.1,23.2,29.56,NNW,345,8.1,11.0,39,0.00,,,0.00,WUHU216WMR968SP,2013-04-01 12:07:00,
2013-04-01 08:12:00,47.1,22.6,29.56,North,350,5.8,11.0,38,0.00,,,0.00,WUHU216WMR968SP,2013-04-01 12:12:00,
2013-04-01 08:17:00,47.5,22.3,29.56,NNW,331,4.0,11.4,37,0.00,,,0.00,WUHU216WMR968SP,2013-04-01 12:17:00,
2013-04-01 08:22:00,47.7,20.4,29.56,NNE,28,6.7,11.4,34,0.00,,,0.00,WUHU216WMR968SP,2013-04-01 12:22:00,
2013-04-01 08:27:00,47.5,19.6,29.56,North,2,7.2,11.0,33,0.00,,,0.00,WUHU216WMR968SP,2013-04-01 12:27:00,
2013-04-01 08:32:00,47.5,20.3,29.56,NNW,346,5.8,11.0,34,0.00,,,0.00,WUHU216WMR968SP,2013-04-01 12:32:00,
2013-04-01 08:37:00,47.8,19.1,29.56,NNW,341,6.3,11.0,32,0.00,,,0.00,WUHU216WMR968SP,2013-04-01 12:37:00,
2013-04-01 08:42:00,47.8,17.6,29.56,North,2,8.7,11.4,30,0.00,,,0.00,WUHU216WMR968SP,2013-04-01 12:42:00,
2013-04-01 08:47:00,48.6,17.5,29.56,North,357,5.8,11.4,29,0.00,,,0.00,WUHU216WMR968SP,2013-04-01 12:47:00,
2013-04-01 08:52:00,49.3,17.3,29.56,North,353,4.5,10.5,28,0.00,,,0.00,WUHU216WMR968SP,2013-04-01 12:52:00,
2013-04-01 08:57:00,49.3,17.3,29.56,NNE,30,3.1,9.6,28,0.00,,,0.00,WUHU216WMR968SP,2013-04-01 12:57:00,
2013-04-01 09:02:00,49.5,16.7,29.56,North,0,5.4,11.4,27,0.00,,,0.00,WUHU216WMR968SP,2013-04-01 13:02:00,
2013-04-01 09:07:00,49.6,15.9,29.56,NW,325,9.6,11.4,26,0.00,,,0.00,WUHU216WMR968SP,2013-04-01 13:07:00,
2013-04-01 09:12:00,48.9,16.2,29.56,NW,324,8.1,11.4,27,0.00,,,0.00,WUHU216WMR968SP,2013-04-01 13:12:00,
2013-04-01 09:17:00,48.7,16.0,29.56,West,267,7.6,12.8,27,0.00,,,0.00,WUHU216WMR968SP,2013-04-01 13:17:00,
2013-04-01 09:22:00,49.5,16.7,29.56,ENE,71,2.7,13.2,27,0.00,,,0.00,WUHU216WMR968SP,2013-04-01 13:22:00,
2013-04-01 09:27:00,49.6,16.8,29.56,North,357,5.8,13.2,27,0.00,,,0.00,WUHU216WMR968SP,2013-04-01 13:27:00,
2013-04-01 09:32:00,48.7,16.0,29.56,NNW,343,9.6,10.5,27,0.00,,,0.00,WUHU216WMR968SP,2013-04-01 13:32:00,
2013-04-01 09:37:00,49.3,16.5,29.56,North,353,6.7,10.5,27,0.00,,,0.00,WUHU216WMR968SP,2013-04-01 13:37:00,
2013-04-01 09:42:00,48.7,16.0,29.56,NNW,334,8.1,11.4,27,0.00,,,0.00,WUHU216WMR968SP,2013-04-01 13:42:00,
2013-04-01 09:47:00,49.1,16.3,29.56,NNW,338,5.4,11.4,27,0.00,,,0.00,WUHU216WMR968SP,2013-04-01 13:47:00,
2013-04-01 09:52:00,49.3,16.5,29.56,NW,314,4.0,10.5,27,0.00,,,0.00,WUHU216WMR968SP,2013-04-01 13:52:00,
2013-04-01 09:57:00,50.5,14.9,29.56,WNW,288,5.4,10.5,24,0.00,,,0.00,WUHU216WMR968SP,2013-04-01 13:57:00,
2013-04-01 10:02:00,51.8,13.0,29.56,NW,324,0.0,8.1,21,0.00,,,0.00,WUHU216WMR968SP,2013-04-01 14:02:00,
2013-04-01 10:07:00,52.9,13.9,29.56,NNW,328,0.0,8.1,21,0.00,,,0.00,WUHU216WMR968SP,2013-04-01 14:07:00,
2013-04-01 10:12:00,55.4,8.4,29.56,West,272,3.1,8.7,15,0.00,,,0.00,WUHU216WMR968SP,2013-04-01 14:12:00,
2013-04-01 10:17:00,56.5,4.3,29.56,NW,314,2.2,8.7,12,0.00,,,0.00,WUHU216WMR968SP,2013-04-01 14:17:00,
2013-04-01 10:22:00,54.7,4.7,29.56,NW,305,4.9,8.3,13,0.00,,,0.00,WUHU216WMR968SP,2013-04-01 14:22:00,
2013-04-01 10:27:00,55.2,5.1,29.56,NNW,338,4.0,8.7,13,0.00,,,0.00,WUHU216WMR968SP,2013-04-01 14:27:00,
2013-04-01 10:32:00,55.2,-0.7,29.56,West,268,4.9,8.7,10,0.00,,,0.00,WUHU216WMR968SP,2013-04-01 14:32:00,
2013-04-01 10:37:00,53.8,-1.8,29.56,North,0,5.4,12.3,10,0.00,,,0.00,WUHU216WMR968SP,2013-04-01 14:37:00,
2013-04-01 10:42:00,55.8,-0.3,29.56,NW,318,2.2,12.3,10,0.00,,,0.00,WUHU216WMR968SP,2013-04-01 14:42:00,
2013-04-01 10:47:00,54.7,-1.1,29.56,West,265,2.2,11.0,10,0.00,,,0.00,WUHU216WMR968SP,2013-04-01 14:47:00,
2013-04-01 10:52:00,55.0,-0.9,29.56,NNW,337,0.0,8.7,10,0.00,,,0.00,WUHU216WMR968SP,2013-04-01 14:52:00,
2013-04-01 10:57:00,54.5,-1.3,29.56,WNW,294,4.5,8.7,10,0.00,,,0.00,WUHU216WMR968SP,2013-04-01 14:57:00,
2013-04-01 11:02:00,55.4,-0.6,29.56,West,268,4.5,8.7,10,0.00,,,0.00,WUHU216WMR968SP,2013-04-01 15:02:00,
2013-04-01 11:07:00,56.5,0.3,29.56,WNW,294,7.2,9.6,10,0.00,,,0.00,WUHU216WMR968SP,2013-04-01 15:07:00,
2013-04-01 11:12:00,58.5,-0.5,29.56,NNW,339,2.2,9.6,9,0.00,,,0.00,WUHU216WMR968SP,2013-04-01 15:12:00,
2013-04-01 11:17:00,59.7,0.4,29.56,NW,308,3.6,8.3,9,0.00,,,0.00,WUHU216WMR968SP,2013-04-01 15:17:00,
2013-04-01 11:22:00,59.5,0.3,29.56,NW,317,2.2,8.3,9,0.00,,,0.00,WUHU216WMR968SP,2013-04-01 15:22:00,
2013-04-01 11:27:00,56.8,0.5,29.56,WNW,293,4.9,8.3,10,0.00,,,0.00,WUHU216WMR968SP,2013-04-01 15:27:00,
2013-04-01 11:33:00,56.5,0.3,29.56,NW,307,5.8,8.1,10,0.00,,,0.00,WUHU216WMR968SP,2013-04-01 15:33:00,
2013-04-01 11:38:00,56.3,0.1,29.56,NW,309,4.0,8.3,10,0.00,,,0.00,WUHU216WMR968SP,2013-04-01 15:38:00,
2013-04-01 11:43:00,55.9,-0.2,29.56,WNW,283,3.1,8.3,10,0.00,,,0.00,WUHU216WMR968SP,2013-04-01 15:43:00,
2013-04-01 11:48:00,55.8,-0.3,29.56,NW,326,6.3,8.7,10,0.00,,,0.00,WUHU216WMR968SP,2013-04-01 15:48:00,
2013-04-01 11:53:00,55.9,-0.2,29.53,WNW,302,3.6,8.7,10,0.00,,,0.00,WUHU216WMR968SP,2013-04-01 15:53:00,
2013-04-01 11:58:00,55.9,-0.2,29.53,WSW,241,3.1,7.6,10,0.00,,,0.00,WUHU216WMR968SP,2013-04-01 15:58:00,
2013-04-01 12:03:00,56.1,0.0,29.53,North,1,6.3,10.1,10,0.00,,,0.00,WUHU216WMR968SP,2013-04-01 16:03:00,
2013-04-01 12:08:00,56.5,0.3,29.53,WNW,289,5.4,10.1,10,0.00,,,0.00,WUHU216WMR968SP,2013-04-01 16:08:00,
2013-04-01 12:13:00,56.3,-7.3,29.53,NW,304,7.2,8.7,7,0.00,,,0.00,WUHU216WMR968SP,2013-04-01 16:13:00,
2013-04-01 12:18:00,56.8,0.5,29.53,NW,305,4.0,8.3,10,0.00,,,0.00,WUHU216WMR968SP,2013-04-01 16:18:00,
2013-04-01 12:23:00,57.4,-6.5,29.53,West,281,4.9,8.3,7,0.00,,,0.00,WUHU216WMR968SP,2013-04-01 16:23:00,
2013-04-01 12:28:00,57.9,-6.1,29.53,North,357,4.5,8.7,7,0.00,,,0.00,WUHU216WMR968SP,2013-04-01 16:28:00,
2013-04-01 12:33:00,58.3,-5.8,29.53,West,280,6.3,10.1,7,0.00,,,0.00,WUHU216WMR968SP,2013-04-01 16:33:00,
2013-04-01 12:38:00,58.5,-5.7,29.53,WNW,289,6.7,11.0,7,0.00,,,0.00,WUHU216WMR968SP,2013-04-01 16:38:00,
2013-04-01 12:43:00,58.8,-5.5,29.53,WNW,291,4.5,11.0,7,0.00,,,0.00,WUHU216WMR968SP,2013-04-01 16:43:00,
2013-04-01 12:48:00,59.0,-5.3,29.53,West,275,5.8,10.1,7,0.00,,,0.00,WUHU216WMR968SP,2013-04-01 16:48:00,
2013-04-01 12:53:00,59.2,-5.2,29.53,WNW,284,5.8,8.7,7,0.00,,,0.00,WUHU216WMR968SP,2013-04-01 16:53:00,
2013-04-01 12:58:00,59.4,-5.0,29.53,WNW,301,4.5,11.0,7,0.00,,,0.00,WUHU216WMR968SP,2013-04-01 16:58:00,
2013-04-01 13:03:00,59.5,-5.0,29.53,NW,312,6.3,11.0,7,0.00,,,0.00,WUHU216WMR968SP,2013-04-01 17:03:00,
2013-04-01 13:08:00,60.4,-4.3,29.53,WNW,297,4.0,10.5,7,0.00,,,0.00,WUHU216WMR968SP,2013-04-01 17:08:00,
2013-04-01 13:13:00,61.0,-6.9,29.53,WNW,297,3.6,8.3,6,0.00,,,0.00,WUHU216WMR968SP,2013-04-01 17:13:00,
2013-04-01 13:18:00,61.2,-6.7,29.53,NNW,331,0.0,8.3,6,0.00,,,0.00,WUHU216WMR968SP,2013-04-01 17:18:00,
2013-04-01 13:23:00,61.0,-6.9,29.50,West,262,4.9,10.5,6,0.00,,,0.00,WUHU216WMR968SP,2013-04-01 17:23:00,
2013-04-01 13:28:00,61.3,-6.6,29.50,WNW,283,6.3,10.5,6,0.00,,,0.00,WUHU216WMR968SP,2013-04-01 17:28:00,
2013-04-01 13:33:00,61.9,-6.2,29.50,NW,311,4.0,8.7,6,0.00,,,0.00,WUHU216WMR968SP,2013-04-01 17:33:00,
2013-04-01 13:38:00,63.0,-5.4,29.50,WNW,300,4.9,8.7,6,0.00,,,0.00,WUHU216WMR968SP,2013-04-01 17:38:00,
2013-04-01 13:43:00,63.5,-5.0,29.50,West,280,4.0,6.3,6,0.00,,,0.00,WUHU216WMR968SP,2013-04-01 17:43:00,
2013-04-01 13:48:00,64.2,-4.5,29.50,WNW,302,0.0,6.3,6,0.00,,,0.00,WUHU216WMR968SP,2013-04-01 17:48:00,
2013-04-01 13:53:00,63.9,-4.8,29.50,South,184,4.9,6.3,6,0.00,,,0.00,WUHU216WMR968SP,2013-04-01 17:53:00,
2013-04-01 13:58:00,63.0,-5.4,29.50,WNW,290,6.3,12.3,6,0.00,,,0.00,WUHU216WMR968SP,2013-04-01 17:58:00,
2013-04-01 14:03:00,63.3,-5.2,29.50,West,280,7.6,12.3,6,0.00,,,0.00,WUHU216WMR968SP,2013-04-01 18:03:00,
2013-04-01 14:08:00,63.3,-5.2,29.50,West,266,5.8,11.0,6,0.00,,,0.00,WUHU216WMR968SP,2013-04-01 18:08:00,
2013-04-01 14:13:00,63.0,-5.4,29.50,WNW,299,2.2,8.3,6,0.00,,,0.00,WUHU216WMR968SP,2013-04-01 18:13:00,
2013-04-01 14:18:00,63.5,-5.0,29.50,West,273,6.3,8.7,6,0.00,,,0.00,WUHU216WMR968SP,2013-04-01 18:18:00,
2013-04-01 14:23:00,63.5,-5.0,29.47,NW,323,4.0,10.1,6,0.00,,,0.00,WUHU216WMR968SP,2013-04-01 18:23:00,
2013-04-01 14:28:00,64.0,-4.7,29.47,West,262,6.3,10.1,6,0.00,,,0.00,WUHU216WMR968SP,2013-04-01 18:28:00,
2013-04-01 14:33:00,63.3,-5.2,29.47,West,274,2.2,8.1,6,0.00,,,0.00,WUHU216WMR968SP,2013-04-01 18:33:00,
2013-04-01 14:38:00,63.3,-5.2,29.47,West,273,3.1,8.1,6,0.00,,,0.00,WUHU216WMR968SP,2013-04-01 18:38:00,
2013-04-01 14:43:00,63.1,-5.3,29.47,South,180,5.4,9.6,6,0.00,,,0.00,WUHU216WMR968SP,2013-04-01 18:43:00,
2013-04-01 14:48:00,60.3,-4.4,29.47,South,181,3.1,9.6,7,0.00,,,0.00,WUHU216WMR968SP,2013-04-01 18:48:00,
2013-04-01 14:53:00,58.1,-6.0,29.47,SSW,192,3.6,11.0,7,0.00,,,0.00,WUHU216WMR968SP,2013-04-01 18:53:00,
2013-04-01 14:58:00,57.6,-6.4,29.47,SW,223,4.0,11.0,7,0.00,,,0.00,WUHU216WMR968SP,2013-04-01 18:58:00,
2013-04-01 15:03:00,56.8,-6.9,29.47,South,190,5.4,8.3,7,0.00,,,0.00,WUHU216WMR968SP,2013-04-01 19:03:00,
2013-04-01 15:08:00,56.1,-7.5,29.47,SW,222,2.7,8.3,7,0.00,,,0.00,WUHU216WMR968SP,2013-04-01 19:08:00,
2013-04-01 15:13:00,55.6,-7.8,29.47,NNW,331,2.7,7.2,7,0.00,,,0.00,WUHU216WMR968SP,2013-04-01 19:13:00,
2013-04-01 15:18:00,55.9,-7.6,29.47,South,187,0.0,6.3,7,0.00,,,0.00,WUHU216WMR968SP,2013-04-01 19:18:00,
2013-04-01 15:23:00,56.5,-7.2,29.44,NE,55,3.6,8.3,7,0.00,,,0.00,WUHU216WMR968SP,2013-04-01 19:23:00,
2013-04-01 15:28:00,56.1,-7.5,29.44,SSW,202,0.0,8.3,7,0.00,,,0.00,WUHU216WMR968SP,2013-04-01 19:28:00,
2013-04-01 15:33:00,55.8,-7.7,29.44,West,263,0.0,5.4,7,0.00,,,0.00,WUHU216WMR968SP,2013-04-01 19:33:00,
2013-04-01 15:38:00,55.8,-7.7,29.47,WSW,241,0.0,3.6,7,0.00,,,0.00,WUHU216WMR968SP,2013-04-01 19:38:00,
2013-04-01 15:43:00,56.1,-7.5,29.47,West,265,0.0,3.6,7,0.00,,,0.00,WUHU216WMR968SP,2013-04-01 19:43:00,
2013-04-01 15:48:00,57.4,-6.5,29.47,WNW,285,0.0,3.6,7,0.00,,,0.00,WUHU216WMR968SP,2013-04-01 19:48:00,
2013-04-01 15:53:00,58.5,-5.7,29.47,NW,317,0.0,3.6,7,0.00,,,0.00,WUHU216WMR968SP,2013-04-01 19:53:00,
2013-04-01 15:58:00,59.0,-5.3,29.47,WNW,282,0.0,3.6,7,0.00,,,0.00,WUHU216WMR968SP,2013-04-01 19:58:00,
2013-04-01 16:03:00,59.0,-5.3,29.47,North,357,0.0,3.1,7,0.00,,,0.00,WUHU216WMR968SP,2013-04-01 20:03:00,
2013-04-01 16:08:00,59.2,-5.2,29.47,SSW,200,0.0,3.1,7,0.00,,,0.00,WUHU216WMR968SP,2013-04-01 20:08:00,
2013-04-01 16:13:00,59.0,-5.3,29.47,WNW,286,0.0,5.4,7,0.00,,,0.00,WUHU216WMR968SP,2013-04-01 20:13:00,
2013-04-01 16:18:00,56.3,-7.3,29.47,NNW,331,7.6,19.7,7,0.00,,,0.00,WUHU216WMR968SP,2013-04-01 20:18:00,
2013-04-01 16:23:00,52.7,-0.6,29.47,SSE,148,18.3,24.6,11,0.00,,,0.00,WUHU216WMR968SP,2013-04-01 20:23:00,
2013-04-01 16:29:00,51.6,6.8,29.47,North,9,9.2,25.7,16,0.00,,,0.00,WUHU216WMR968SP,2013-04-01 20:29:00,
2013-04-01 16:34:00,51.8,7.0,29.47,North,4,11.9,25.7,16,0.00,,,0.00,WUHU216WMR968SP,2013-04-01 20:34:00,
2013-04-01 16:39:00,52.2,7.3,29.50,NNW,328,15.4,19.7,16,0.00,,,0.00,WUHU216WMR968SP,2013-04-01 20:39:00,
2013-04-01 16:44:00,52.0,2.5,29.50,North,3,14.1,20.1,13,0.00,,,0.00,WUHU216WMR968SP,2013-04-01 20:44:00,
2013-04-01 16:49:00,52.0,2.5,29.50,NE,40,9.2,20.1,13,0.00,,,0.00,WUHU216WMR968SP,2013-04-01 20:49:00,
2013-04-01 16:54:00,51.6,3.8,29.50,WNW,291,7.6,17.9,14,0.00,,,0.00,WUHU216WMR968SP,2013-04-01 20:54:00,
2013-04-01 16:59:00,51.6,3.8,29.50,WNW,283,6.3,17.0,14,0.00,,,0.00,WUHU216WMR968SP,2013-04-01 20:59:00,
2013-04-01 17:04:00,51.4,-1.6,29.50,NW,317,6.7,14.5,11,0.00,,,0.00,WUHU216WMR968SP,2013-04-01 21:04:00,
2013-04-01 17:09:00,51.3,-1.7,29.50,SE,139,5.8,14.5,11,0.00,,,0.00,WUHU216WMR968SP,2013-04-01 21:09:00,
2013-04-01 17:14:00,51.1,-1.8,29.50,NW,324,8.1,13.2,11,0.00,,,0.00,WUHU216WMR968SP,2013-04-01 21:14:00,
2013-04-01 17:19:00,50.4,-2.4,29.50,South,184,8.3,13.2,11,0.00,,,0.00,WUHU216WMR968SP,2013-04-01 21:19:00,
2013-04-01 17:24:00,50.2,2.7,29.53,WNW,300,5.4,13.2,14,0.00,,,0.00,WUHU216WMR968SP,2013-04-01 21:24:00,
2013-04-01 17:29:00,49.6,2.2,29.53,WNW,288,6.3,12.8,14,0.00,,,0.00,WUHU216WMR968SP,2013-04-01 21:29:00,
2013-04-01 17:34:00,49.5,2.2,29.53,North,357,6.3,15.0,14,0.00,,,0.00,WUHU216WMR968SP,2013-04-01 21:34:00,
2013-04-01 17:39:00,49.3,4.9,29.53,SSW,212,5.8,15.0,16,0.04,,,0.04,WUHU216WMR968SP,2013-04-01 21:39:00,
2013-04-01 17:44:00,49.3,2.0,29.53,West,265,4.9,14.5,14,0.04,,,0.04,WUHU216WMR968SP,2013-04-01 21:44:00,
2013-04-01 17:49:00,49.5,2.2,29.53,WNW,300,4.9,11.4,14,0.04,,,0.04,WUHU216WMR968SP,2013-04-01 21:49:00,
2013-04-01 17:54:00,49.6,2.2,29.53,NW,324,5.8,11.4,14,0.04,,,0.04,WUHU216WMR968SP,2013-04-01 21:54:00,
2013-04-01 17:59:00,49.8,2.4,29.53,WSW,239,6.7,12.8,14,0.04,,,0.04,WUHU216WMR968SP,2013-04-01 21:59:00,
2013-04-01 18:04:00,50.0,-2.7,29.53,WNW,301,8.1,12.8,11,0.04,,,0.04,WUHU216WMR968SP,2013-04-01 22:04:00,
2013-04-01 18:09:00,50.0,-2.7,29.53,WNW,299,5.8,21.5,11,0.04,,,0.04,WUHU216WMR968SP,2013-04-01 22:09:00,
2013-04-01 18:14:00,49.6,-3.0,29.53,WSW,257,7.2,21.5,11,0.04,,,0.04,WUHU216WMR968SP,2013-04-01 22:14:00,
2013-04-01 18:19:00,50.2,-2.5,29.53,West,269,6.7,14.1,11,0.04,,,0.04,WUHU216WMR968SP,2013-04-01 22:19:00,
2013-04-01 18:24:00,49.3,-3.2,29.56,NW,313,9.2,15.4,11,0.04,,,0.04,WUHU216WMR968SP,2013-04-01 22:24:00,
2013-04-01 18:29:00,48.7,-3.7,29.56,North,353,13.2,17.4,11,0.04,,,0.04,WUHU216WMR968SP,2013-04-01 22:29:00,
2013-04-01 18:34:00,48.4,-8.1,29.56,NNW,331,9.6,17.4,9,0.04,,,0.04,WUHU216WMR968SP,2013-04-01 22:34:00,
2013-04-01 18:39:00,48.0,-8.5,29.56,NNE,26,6.3,17.0,9,0.00,,,0.04,WUHU216WMR968SP,2013-04-01 22:39:00,
2013-04-01 18:44:00,47.7,-8.7,29.56,North,9,5.4,11.0,9,0.00,,,0.04,WUHU216WMR968SP,2013-04-01 22:44:00,
2013-04-01 18:49:00,47.3,-9.0,29.56,West,266,5.8,10.1,9,0.00,,,0.04,WUHU216WMR968SP,2013-04-01 22:49:00,
2013-04-01 18:54:00,46.9,-9.3,29.59,NW,311,14.5,19.7,9,0.00,,,0.04,WUHU216WMR968SP,2013-04-01 22:54:00,
2013-04-01 18:59:00,46.6,-9.5,29.59,South,181,11.0,19.7,9,0.00,,,0.04,WUHU216WMR968SP,2013-04-01 22:59:00,
2013-04-01 19:04:00,46.2,-7.6,29.59,North,357,9.6,17.0,10,0.00,,,0.04,WUHU216WMR968SP,2013-04-01 23:04:00,
2013-04-01 19:09:00,45.9,-7.9,29.59,WNW,290,12.3,18.3,10,0.00,,,0.04,WUHU216WMR968SP,2013-04-01 23:09:00,
2013-04-01 19:14:00,46.0,-7.8,29.59,SE,135,6.7,19.7,10,0.00,,,0.04,WUHU216WMR968SP,2013-04-01 23:14:00,
2013-04-01 19:19:00,45.7,-8.0,29.59,WSW,241,9.2,19.7,10,0.00,,,0.04,WUHU216WMR968SP,2013-04-01 23:19:00,
2013-04-01 19:24:00,45.7,-8.0,29.59,North,3,10.5,19.7,10,0.00,,,0.04,WUHU216WMR968SP,2013-04-01 23:24:00,
2013-04-01 19:29:00,45.5,-8.2,29.59,NNW,328,8.1,19.7,10,0.00,,,0.04,WUHU216WMR968SP,2013-04-01 23:29:00,
2013-04-01 19:34:00,45.3,-8.3,29.59,WNW,289,7.2,17.0,10,0.00,,,0.04,WUHU216WMR968SP,2013-04-01 23:34:00,
2013-04-01 19:39:00,45.1,-8.5,29.62,NNW,329,8.3,18.3,10,0.00,,,0.04,WUHU216WMR968SP,2013-04-01 23:39:00,
2013-04-01 19:44:00,44.4,-9.0,29.62,NNW,336,10.5,18.3,10,0.00,,,0.04,WUHU216WMR968SP,2013-04-01 23:44:00,
2013-04-01 19:49:00,44.2,-9.2,29.62,North,357,12.3,17.4,10,0.00,,,0.04,WUHU216WMR968SP,2013-04-01 23:49:00,
2013-04-01 19:54:00,43.7,-9.6,29.62,North,6,14.5,22.8,10,0.00,,,0.04,WUHU216WMR968SP,2013-04-01 23:54:00,
2013-04-01 19:59:00,43.5,-9.7,29.62,NNE,14,11.4,22.8,10,0.00,,,0.04,WUHU216WMR968SP,2013-04-01 23:59:00,
2013-04-01 20:04:00,43.2,-10.0,29.62,West,262,13.6,21.0,10,0.00,,,0.04,WUHU216WMR968SP,2013-04-02 00:04:00,
2013-04-01 20:09:00,43.2,-10.0,29.65,NNW,335,13.2,19.7,10,0.00,,,0.04,WUHU216WMR968SP,2013-04-02 00:09:00,
2013-04-01 20:14:00,43.0,-10.1,29.65,NW,316,17.4,23.3,10,0.00,,,0.04,WUHU216WMR968SP,2013-04-02 00:14:00,
2013-04-01 20:19:00,43.0,-10.1,29.65,North,353,10.1,23.3,10,0.00,,,0.04,WUHU216WMR968SP,2013-04-02 00:19:00,
2013-04-01 20:24:00,43.0,-10.1,29.65,WNW,289,11.0,20.1,10,0.00,,,0.04,WUHU216WMR968SP,2013-04-02 00:24:00,
2013-04-01 20:29:00,42.4,-8.6,29.65,NNW,328,9.6,19.7,11,0.00,,,0.04,WUHU216WMR968SP,2013-04-02 00:29:00,
2013-04-01 20:34:00,42.3,-8.7,29.65,NW,323,11.0,19.7,11,0.00,,,0.04,WUHU216WMR968SP,2013-04-02 00:34:00,
2013-04-01 20:39:00,42.1,-8.8,29.65,NNW,332,9.2,16.8,11,0.00,,,0.04,WUHU216WMR968SP,2013-04-02 00:39:00,
2013-04-01 20:44:00,41.9,-9.0,29.65,North,8,11.9,17.0,11,0.00,,,0.04,WUHU216WMR968SP,2013-04-02 00:44:00,
2013-04-01 20:49:00,41.7,-9.2,29.65,NW,315,8.1,17.0,11,0.00,,,0.04,WUHU216WMR968SP,2013-04-02 00:49:00,
2013-04-01 20:54:00,41.7,-9.2,29.65,NNW,338,12.8,19.2,11,0.00,,,0.04,WUHU216WMR968SP,2013-04-02 00:54:00,
2013-04-01 20:59:00,41.5,-11.3,29.65,North,353,12.3,19.2,10,0.00,,,0.04,WUHU216WMR968SP,2013-04-02 00:59:00,
2013-04-01 21:04:00,41.5,-9.3,29.65,NW,318,11.0,19.7,11,0.00,,,0.04,WUHU216WMR968SP,2013-04-02 01:04:00,